Flag for U.S.A. Weather past 2 weeks in Post Falls, Idaho, U.S.A.

Now
34 °F

Low clouds.


Feels Like: 25 °F
Forecast: 31 / 43 °F
Wind: 12 mph from Northeast

Location: Coeur d'Alene Weather Reporting System

Current Time: Jan 29, 2015 at 3:20:42 AM

Latest Report: Jan 29, 2015 at 2:55 AM


Visibility: 2 mi

Pressure: 30.44 "Hg

Humidity: 93%

Dew point: 32 °F

Location of Post FallsLocation

Historic Weather in Post Falls — Graph

°F

Post Falls temperature yesterday

Maximum temperature yesterday: 43 °F (at 2:15 PM)
Minimum temperature yesterday: 34 °F (at 7:15 PM)
Average temperature yesterday: 37 °F

Past Weeks' High & Low Weather Summary

 TemperatureHumidityPressure
High55 °F (Jan 25, 2:15 PM)100% (Jan 16, 8:55 PM)30.50 "Hg (Jan 16, 8:55 PM)
Low21 °F (Jan 15, 12:15 AM)67% (Jan 25, 2:15 PM)29.77 "Hg (Jan 18, 4:55 AM)
Average34 °F89%30.22 "Hg
* Reported Jan 14 2:15 AM — Jan 29 2:15 AM, Post Falls, Weather by CustomWeather, © 2014

Note: Actual official high and low records may vary slightly from our data, if they occured in-between our weather recording intervals... More about our weather records

Advertising

Post Falls weather history for previous 24 hours

 ConditionsComfort  
Time TempWeatherWind HumidityBarometerVisibility
2:15 AM
Jan 29
34 °FLow clouds.12 mph93%30.44 "Hg2 mi
1:55 AM34 °FLow clouds.10 mph93%30.44 "Hg1 mi
1:35 AM34 °FLow clouds.10 mph93%30.44 "Hg1 mi
1:15 AM34 °FLow clouds.10 mph93%30.43 "Hg1 mi
12:55 AM34 °FLow clouds.10 mph93%30.43 "Hg1 mi
12:35 AM34 °FLow clouds.12 mph93%30.43 "Hg1 mi
12:15 AM34 °FLow clouds.8 mph93%30.44 "Hg1 mi
11:55 PM
Jan 28
34 °FLow clouds.9 mph93%30.44 "Hg1 mi
11:35 PM34 °FLow clouds.10 mph93%30.44 "Hg1 mi
11:15 PM34 °FLow clouds.10 mph93%30.43 "Hg1 mi
10:55 PM34 °FLow clouds.10 mph93%30.44 "Hg1 mi
10:35 PM34 °FLow clouds.7 mph93%30.44 "Hg1 mi
10:15 PM34 °FLow clouds.6 mph87%30.43 "Hg1 mi
9:55 PM34 °FLow clouds.7 mph87%30.42 "Hg1 mi
9:35 PM34 °FLow clouds.9 mph93%30.42 "Hg1 mi
9:15 PM34 °FLow clouds.9 mph93%30.42 "Hg1 mi
8:55 PM34 °FClear.7 mph87%30.42 "Hg6 mi
8:35 PM34 °FClear.9 mph87%30.42 "Hg10 mi
8:15 PM34 °FClear.7 mph87%30.41 "Hg9 mi
7:55 PM34 °FPassing clouds.9 mph87%30.41 "Hg10 mi
7:35 PM36 °FPassing clouds.9 mph87%30.41 "Hg10 mi
7:15 PM34 °FClear.7 mph87%30.41 "Hg10 mi
6:55 PM36 °FClear.9 mph87%30.41 "Hg10 mi
6:35 PM36 °FClear.8 mph87%30.40 "Hg10 mi
6:15 PM37 °FPassing clouds.13 mph87%30.40 "Hg10 mi
5:55 PM36 °FClear.9 mph93%30.40 "Hg10 mi
5:35 PM37 °FClear.9 mph87%30.40 "Hg10 mi
5:15 PM37 °FClear.9 mph87%30.40 "Hg10 mi
4:55 PM37 °FClear.8 mph87%30.39 "Hg10 mi
4:35 PM37 °FScattered clouds.7 mph87%30.39 "Hg10 mi
4:15 PM39 °FOvercast.6 mph87%30.39 "Hg10 mi
3:55 PM39 °FOvercast.7 mph87%30.38 "Hg10 mi
3:35 PM43 °FOvercast.7 mph81%30.38 "Hg10 mi
3:15 PM43 °FOvercast.7 mph81%30.38 "Hg10 mi
2:55 PM43 °FOvercast.5 mph81%30.37 "Hg10 mi
2:35 PM43 °FOvercast.No wind76%30.37 "Hg10 mi
2:15 PM43 °FOvercast.No wind76%30.37 "Hg10 mi
1:35 PM41 °FMore clouds than sun.No wind81%30.37 "Hg10 mi
1:15 PM41 °FOvercast.3 mph81%30.37 "Hg10 mi
12:55 PM41 °FOvercast.No wind81%30.37 "Hg10 mi
12:35 PM41 °FMore clouds than sun.3 mph81%30.37 "Hg10 mi
12:15 PM41 °FOvercast.No wind81%30.37 "Hg10 mi
11:55 AM41 °FOvercast.3 mph81%30.37 "Hg10 mi
11:35 AM39 °FOvercast.No wind87%30.37 "Hg10 mi
11:15 AM39 °FOvercast.No wind87%30.36 "Hg10 mi
10:55 AM39 °FOvercast.No wind87%30.36 "Hg10 mi
10:35 AM39 °FOvercast.No wind87%30.36 "Hg10 mi
10:15 AM37 °FMostly cloudy.3 mph93%30.36 "Hg10 mi
9:55 AM37 °FOvercast.No wind87%30.36 "Hg10 mi
9:35 AM37 °FLow clouds.No wind87%30.35 "Hg10 mi
9:15 AM36 °FLow clouds.No wind93%30.34 "Hg10 mi
8:55 AM36 °FLow clouds.No wind93%30.34 "Hg10 mi
8:35 AM36 °FLow clouds.3 mph93%30.33 "Hg9 mi
8:15 AM36 °FLow clouds.No wind93%30.33 "Hg9 mi
7:55 AM36 °FLow clouds.No wind93%30.32 "Hg8 mi
7:35 AM36 °FLow clouds.No wind93%30.32 "Hg9 mi
7:15 AM36 °FLow clouds.3 mph87%30.31 "Hg9 mi
6:55 AM36 °FLow clouds.3 mph93%30.30 "Hg7 mi
6:35 AM36 °FMostly cloudy.5 mph87%30.30 "Hg3 mi
6:15 AM36 °FLow clouds.No wind87%30.28 "Hg4 mi
5:55 AM36 °FLow clouds.3 mph93%30.27 "Hg3 mi
5:35 AM36 °FLow clouds.No wind93%30.26 "Hg3 mi
5:15 AM36 °FLow clouds.No wind93%30.26 "Hg2 mi
4:55 AM36 °FLow clouds.3 mph93%30.25 "Hg2 mi
4:35 AM36 °FLow clouds.No wind87%30.25 "Hg2 mi
4:15 AM36 °FLow clouds.No wind87%30.24 "Hg3 mi
3:55 AM36 °FLow clouds.3 mph87%30.23 "Hg3 mi
3:35 AM36 °FLow clouds.3 mph93%30.23 "Hg3 mi
3:15 AM36 °FLow clouds.5 mph93%30.22 "Hg4 mi
Weather by CustomWeather, © 2014

See weather overviewHow to use our weather pages